"read_dt","SO2 (ppb)","flags","PMT voltage (V)","lamp voltage (V)","lamp intensity (Hz)","internal temp (C)","react chamber temp (C)","sample flow (l/min)","pres (mmHg)","SO2 bkg (ppb)","SO2 coefficient"
2015-12-06 00:00:00,1736E-3,5C000400,-0724,0832,12174,026.4,045.4,0.259,763.6,01.16,0.508
2015-12-06 00:01:00,1825E-3,5C000400,-0724,0831,12205,026.3,045.4,0.259,763.6,01.16,0.508
2015-12-06 00:02:00,1718E-3,5C000400,-0724,0831,12129,026.3,045.4,0.259,763.7,01.16,0.508
2015-12-06 00:03:00,1774E-3,5C000400,-0724,0832,12235,026.4,045.4,0.259,763.7,01.16,0.508
2015-12-06 00:04:00,1751E-3,5C000400,-0724,0832,12142,026.3,045.4,0.259,763.6,01.16,0.508
2015-12-06 00:05:00,1737E-3,5C000400,-0724,0832,12049,026.3,045.3,0.259,763.6,01.16,0.508
2015-12-06 00:06:00,1820E-3,5C000400,-0724,0830,12129,026.3,045.4,0.259,763.6,01.16,0.508
2015-12-06 00:07:00,1878E-3,5C000400,-0724,0831,12255,026.3,045.4,0.259,763.5,01.16,0.508
2015-12-06 00:08:00,1883E-3,5C000400,-0724,0831,12206,026.3,045.4,0.259,763.6,01.16,0.508
2015-12-06 00:09:00,1763E-3,5C000400,-0724,0832,12174,026.3,045.4,0.259,763.5,01.16,0.508
2015-12-06 00:10:00,1907E-3,5C000400,-0724,0831,12220,026.4,045.4,0.259,763.5,01.16,0.508
2015-12-06 00:11:00,1844E-3,5C000400,-0724,0831,12026,026.3,045.4,0.259,763.5,01.16,0.508
2015-12-06 00:12:00,1746E-3,5C000400,-0724,0831,12219,026.3,045.4,0.259,763.5,01.16,0.508
2015-12-06 00:13:00,1814E-3,5C000400,-0724,0832,12189,026.3,045.4,0.259,763.5,01.16,0.508
2015-12-06 00:14:00,1768E-3,5C000400,-0724,0831,12094,026.3,045.4,0.259,763.5,01.16,0.508
2015-12-06 00:15:00,1640E-3,5C000400,-0724,0831,12224,026.3,045.4,0.259,763.5,01.16,0.508
2015-12-06 00:16:00,1795E-3,5C000400,-0724,0831,12167,026.3,045.4,0.259,763.3,01.16,0.508
2015-12-06 00:17:00,1873E-3,5C000400,-0724,0831,12253,026.3,045.4,0.259,763.3,01.16,0.508
2015-12-06 00:18:00,1780E-3,5C000400,-0724,0830,12079,026.3,045.3,0.259,763.2,01.16,0.508
2015-12-06 00:19:00,1789E-3,5C000400,-0724,0831,12247,026.3,045.4,0.259,763.2,01.16,0.508
2015-12-06 00:20:00,1725E-3,5C000400,-0724,0832,12178,026.3,045.4,0.259,763.4,01.16,0.508
2015-12-06 00:21:00,1813E-3,5C000400,-0724,0831,12126,026.3,045.4,0.258,763.4,01.16,0.508
2015-12-06 00:22:00,1810E-3,5C000400,-0724,0831,12128,026.3,045.3,0.259,763.5,01.16,0.508
2015-12-06 00:23:00,1861E-3,5C000400,-0724,0831,12177,026.3,045.4,0.258,763.4,01.16,0.508
2015-12-06 00:24:00,1748E-3,5C000400,-0724,0830,12218,026.3,045.4,0.259,763.4,01.16,0.508
2015-12-06 00:25:00,1734E-3,5C000400,-0724,0832,12200,026.3,045.4,0.259,763.3,01.16,0.508
2015-12-06 00:26:00,1727E-3,5C000400,-0724,0831,12266,026.3,045.4,0.259,763.3,01.16,0.508
2015-12-06 00:27:00,1699E-3,5C000400,-0724,0831,12151,026.3,045.4,0.259,763.2,01.16,0.508
2015-12-06 00:28:00,1912E-3,5C000400,-0724,0831,12122,026.3,045.4,0.259,763.4,01.16,0.508
2015-12-06 00:29:00,1670E-3,5C000400,-0724,0831,12042,026.3,045.4,0.259,763.2,01.16,0.508
2015-12-06 00:30:00,1665E-3,5C000400,-0724,0831,12159,026.3,045.4,0.259,763.4,01.16,0.508
2015-12-06 00:31:00,1707E-3,5C000400,-0724,0830,12263,026.3,045.4,0.259,763.4,01.16,0.508
2015-12-06 00:32:00,1678E-3,5C000400,-0724,0830,12250,026.3,045.4,0.259,763.4,01.16,0.508
2015-12-06 00:33:00,1932E-3,5C000400,-0724,0832,12176,026.3,045.4,0.259,763.3,01.16,0.508
2015-12-06 00:34:00,1804E-3,5C000400,-0724,0831,12074,026.3,045.4,0.258,763.4,01.16,0.508
2015-12-06 00:35:00,1798E-3,5C000400,-0724,0832,12240,026.3,045.4,0.258,763.4,01.16,0.508
2015-12-06 00:36:00,1807E-3,5C000400,-0724,0831,12179,026.3,045.4,0.259,763.4,01.16,0.508
2015-12-06 00:37:00,1703E-3,5C000400,-0724,0832,12101,026.3,045.4,0.259,763.5,01.16,0.508
2015-12-06 00:38:00,1840E-3,5C000400,-0724,0831,12226,026.3,045.4,0.259,763.5,01.16,0.508
2015-12-06 00:39:00,1816E-3,5C000400,-0724,0831,12252,026.3,045.4,0.259,763.4,01.16,0.508
2015-12-06 00:40:00,1824E-3,5C000400,-0724,0831,12172,026.2,045.4,0.259,763.4,01.16,0.508
2015-12-06 00:41:00,1764E-3,5C000400,-0724,0831,12231,026.2,045.4,0.259,763.4,01.16,0.508
2015-12-06 00:42:00,1724E-3,5C000400,-0724,0832,12153,026.3,045.3,0.259,763.4,01.16,0.508
2015-12-06 00:43:00,1745E-3,5C000400,-0724,0830,12186,026.2,045.4,0.259,763.4,01.16,0.508
2015-12-06 00:44:00,1671E-3,5C000400,-0724,0832,12061,026.2,045.4,0.259,763.4,01.16,0.508
2015-12-06 00:45:00,1789E-3,5C000400,-0724,0831,12187,026.2,045.4,0.259,763.4,01.16,0.508
2015-12-06 00:46:00,1886E-3,5C000400,-0724,0831,12150,026.2,045.4,0.259,763.4,01.16,0.508
2015-12-06 00:47:00,1711E-3,5C000400,-0724,0831,12061,026.2,045.4,0.259,763.4,01.16,0.508
2015-12-06 00:48:00,1883E-3,5C000400,-0724,0831,12022,026.2,045.4,0.259,763.4,01.16,0.508
2015-12-06 00:49:00,1858E-3,5C000400,-0724,0831,12275,026.2,045.4,0.259,763.3,01.16,0.508
2015-12-06 00:50:00,1726E-3,5C000400,-0724,0831,12178,026.2,045.4,0.259,763.3,01.16,0.508
2015-12-06 00:51:00,1753E-3,5C000400,-0724,0832,12119,026.2,045.4,0.259,763.3,01.16,0.508
2015-12-06 00:52:00,1705E-3,5C000400,-0724,0831,12013,026.2,045.4,0.259,763.3,01.16,0.508
2015-12-06 00:53:00,1858E-3,5C000400,-0724,0831,12265,026.2,045.4,0.259,763.3,01.16,0.508
2015-12-06 00:54:00,1758E-3,5C000400,-0724,0830,12209,026.2,045.4,0.259,763.3,01.16,0.508
2015-12-06 00:55:00,1727E-3,5C000400,-0724,0832,12151,026.2,045.4,0.259,763.3,01.16,0.508
2015-12-06 00:56:00,1847E-3,5C000400,-0724,0832,12205,026.2,045.4,0.259,763.3,01.16,0.508
2015-12-06 00:57:00,1801E-3,5C000400,-0724,0831,12146,026.2,045.4,0.259,763.2,01.16,0.508
2015-12-06 00:58:00,1683E-3,5C000400,-0724,0831,12157,026.2,045.4,0.259,763.2,01.16,0.508
2015-12-06 00:59:00,1672E-3,5C000400,-0724,0831,12218,026.2,045.4,0.259,763.2,01.16,0.508
2015-12-06 01:00:00,1726E-3,5C000400,-0724,0831,12195,026.2,045.4,0.259,763.2,01.16,0.508
2015-12-06 01:01:00,1818E-3,5C000400,-0724,0831,12256,026.2,045.4,0.259,763.2,01.16,0.508
2015-12-06 01:02:00,1807E-3,5C000400,-0724,0832,12143,026.2,045.4,0.259,763.2,01.16,0.508
2015-12-06 01:03:00,1729E-3,5C000400,-0724,0831,12212,026.2,045.4,0.259,763.2,01.16,0.508
2015-12-06 01:04:00,1713E-3,5C000400,-0724,0831,12237,026.2,045.4,0.259,763.2,01.16,0.508
2015-12-06 01:05:00,1774E-3,5C000400,-0724,0831,12201,026.2,045.4,0.259,763.2,01.16,0.508
2015-12-06 01:06:00,1805E-3,5C000400,-0724,0830,11946,026.2,045.4,0.259,763.2,01.16,0.508
2015-12-06 01:07:00,1823E-3,5C000400,-0724,0831,12126,026.2,045.4,0.259,763.2,01.16,0.508
2015-12-06 01:08:00,1734E-3,5C000400,-0724,0831,12251,026.2,045.4,0.259,763.2,01.16,0.508
2015-12-06 01:09:00,1695E-3,5C000400,-0724,0831,12281,026.2,045.4,0.259,763.2,01.16,0.508
2015-12-06 01:10:00,1781E-3,5C000400,-0724,0831,12117,026.2,045.3,0.259,763.3,01.16,0.508
2015-12-06 01:11:00,1717E-3,5C000400,-0724,0831,12043,026.2,045.4,0.259,763.2,01.16,0.508
2015-12-06 01:12:00,1816E-3,5C000400,-0724,0831,12211,026.2,045.4,0.259,763.3,01.16,0.508
2015-12-06 01:13:00,1728E-3,5C000400,-0724,0831,12089,026.2,045.4,0.259,763.3,01.16,0.508
2015-12-06 01:14:00,1815E-3,5C000400,-0724,0831,12145,026.2,045.4,0.260,763.2,01.16,0.508
2015-12-06 01:15:00,1803E-3,5C000400,-0724,0832,12087,026.1,045.4,0.260,763.2,01.16,0.508
2015-12-06 01:16:00,1760E-3,5C000400,-0724,0831,12109,026.2,045.3,0.259,763.2,01.16,0.508
2015-12-06 01:17:00,1598E-3,5C000400,-0724,0832,12319,026.1,045.4,0.259,763.2,01.16,0.508
2015-12-06 01:18:00,1962E-3,5C000400,-0724,0831,12265,026.2,045.4,0.259,763.2,01.16,0.508
2015-12-06 01:19:00,1755E-3,5C000400,-0724,0831,12133,026.1,045.4,0.259,763.3,01.16,0.508
2015-12-06 01:20:00,1719E-3,5C000400,-0724,0831,12119,026.1,045.4,0.259,763.3,01.16,0.508
2015-12-06 01:21:00,1873E-3,5C000400,-0724,0831,12208,026.2,045.4,0.259,763.3,01.16,0.508
2015-12-06 01:22:00,1847E-3,5C000400,-0724,0831,12199,026.1,045.4,0.259,763.3,01.16,0.508
2015-12-06 01:23:00,1666E-3,5C000400,-0724,0831,12248,026.1,045.4,0.259,763.4,01.16,0.508
2015-12-06 01:24:00,1791E-3,5C000400,-0724,0831,12135,026.1,045.4,0.259,763.4,01.16,0.508
2015-12-06 01:25:00,1796E-3,5C000400,-0724,0831,12061,026.1,045.4,0.259,763.4,01.16,0.508
2015-12-06 01:26:00,1872E-3,5C000400,-0724,0831,12271,026.1,045.4,0.259,763.4,01.16,0.508
2015-12-06 01:27:00,1892E-3,5C000400,-0724,0831,12179,026.1,045.4,0.259,763.4,01.16,0.508
2015-12-06 01:28:00,1743E-3,5C000400,-0724,0831,12146,026.1,045.4,0.259,763.3,01.16,0.508
2015-12-06 01:29:00,1774E-3,5C000400,-0724,0832,12289,026.1,045.4,0.259,763.3,01.16,0.508
2015-12-06 01:30:00,1866E-3,5C000400,-0724,0831,12176,026.1,045.4,0.259,763.3,01.16,0.508
2015-12-06 01:31:00,1783E-3,5C000400,-0724,0831,12247,026.1,045.4,0.259,763.3,01.16,0.508
2015-12-06 01:32:00,1781E-3,5C000400,-0724,0832,12267,026.1,045.4,0.259,763.3,01.16,0.508
2015-12-06 01:33:00,1944E-3,5C000400,-0724,0831,12281,026.1,045.4,0.259,763.3,01.16,0.508
2015-12-06 01:34:00,1701E-3,5C000400,-0724,0831,12163,026.1,045.3,0.259,763.3,01.16,0.508
2015-12-06 01:35:00,1895E-3,5C000400,-0724,0831,12073,026.1,045.4,0.259,763.3,01.16,0.508
2015-12-06 01:36:00,1784E-3,5C000400,-0724,0831,12115,026.1,045.4,0.259,763.3,01.16,0.508
2015-12-06 01:37:00,1846E-3,5C000400,-0724,0831,12258,026.1,045.3,0.259,763.2,01.16,0.508
2015-12-06 01:38:00,1816E-3,5C000400,-0724,0830,12108,026.1,045.4,0.259,763.2,01.16,0.508
2015-12-06 01:39:00,1754E-3,5C000400,-0724,0831,12210,026.1,045.4,0.259,763.2,01.16,0.508
2015-12-06 01:40:00,1952E-3,5C000400,-0724,0831,12098,026.1,045.4,0.259,763.1,01.16,0.508
2015-12-06 01:41:00,1706E-3,5C000400,-0724,0831,12096,026.1,045.4,0.259,763.1,01.16,0.508
2015-12-06 01:42:00,1759E-3,5C000400,-0724,0830,12099,026.1,045.4,0.259,763.1,01.16,0.508
2015-12-06 01:43:00,1743E-3,5C000400,-0724,0831,12338,026.1,045.3,0.259,763.1,01.16,0.508
2015-12-06 01:44:00,1792E-3,5C000400,-0724,0832,12163,026.1,045.4,0.259,763.1,01.16,0.508
2015-12-06 01:45:00,1720E-3,5C000400,-0724,0831,12139,026.1,045.4,0.259,763.1,01.16,0.508
2015-12-06 01:46:00,1762E-3,5C000400,-0724,0831,12192,026.1,045.4,0.259,763.1,01.16,0.508
2015-12-06 01:47:00,1755E-3,5C000400,-0724,0831,12282,026.1,045.4,0.259,763.1,01.16,0.508
2015-12-06 01:48:00,1981E-3,5C000400,-0724,0830,12154,026.1,045.4,0.259,763.1,01.16,0.508
2015-12-06 01:49:00,1777E-3,5C000400,-0724,0831,12184,026.1,045.4,0.259,763.0,01.16,0.508
2015-12-06 01:50:00,1774E-3,5C000400,-0724,0831,12120,026.1,045.4,0.259,763.1,01.16,0.508
2015-12-06 01:51:00,1783E-3,5C000400,-0724,0830,12241,026.1,045.4,0.259,763.0,01.16,0.508
2015-12-06 01:52:00,1653E-3,5C000400,-0724,0830,12295,026.1,045.4,0.259,763.0,01.16,0.508
2015-12-06 01:53:00,1815E-3,5C000400,-0724,0831,12196,026.1,045.4,0.259,762.9,01.16,0.508
2015-12-06 01:54:00,1748E-3,5C000400,-0724,0830,12139,026.1,045.4,0.259,763.0,01.16,0.508
2015-12-06 01:55:00,1740E-3,5C000400,-0724,0831,12185,026.0,045.4,0.259,763.0,01.16,0.508
2015-12-06 01:56:00,1739E-3,5C000400,-0724,0831,12036,026.1,045.4,0.259,763.0,01.16,0.508
2015-12-06 01:57:00,1758E-3,5C000400,-0724,0831,12119,026.1,045.4,0.259,763.1,01.16,0.508
2015-12-06 01:58:00,1867E-3,5C000400,-0724,0830,12297,026.1,045.4,0.259,763.0,01.16,0.508
2015-12-06 01:59:00,1810E-3,5C000400,-0724,0831,12242,026.1,045.4,0.259,763.1,01.16,0.508
2015-12-06 02:00:00,1815E-3,5C000400,-0724,0831,12147,026.1,045.4,0.259,763.1,01.16,0.508
2015-12-06 02:01:00,1830E-3,5C000400,-0724,0831,12273,026.1,045.4,0.259,763.1,01.16,0.508
2015-12-06 02:02:00,1798E-3,5C000400,-0724,0830,12205,026.1,045.4,0.259,763.1,01.16,0.508
2015-12-06 02:03:00,1907E-3,5C000400,-0724,0831,12248,026.0,045.4,0.259,763.1,01.16,0.508
2015-12-06 02:04:00,1792E-3,5C000400,-0724,0831,12163,026.1,045.4,0.259,763.1,01.16,0.508
2015-12-06 02:05:00,1801E-3,5C000400,-0724,0831,12110,026.1,045.4,0.259,763.0,01.16,0.508
2015-12-06 02:06:00,1718E-3,5C000400,-0724,0831,12110,026.1,045.4,0.259,763.0,01.16,0.508
2015-12-06 02:07:00,1801E-3,5C000400,-0724,0831,12101,026.1,045.4,0.259,762.7,01.16,0.508
2015-12-06 02:08:00,1757E-3,5C000400,-0724,0830,12122,026.1,045.4,0.259,762.9,01.16,0.508
2015-12-06 02:09:00,1814E-3,5C000400,-0724,0831,12311,026.1,045.4,0.259,763.0,01.16,0.508
2015-12-06 02:10:00,1845E-3,5C000400,-0724,0832,12115,026.0,045.4,0.259,763.0,01.16,0.508
2015-12-06 02:11:00,1787E-3,5C000400,-0724,0831,12293,026.0,045.4,0.259,763.0,01.16,0.508
2015-12-06 02:12:00,1830E-3,5C000400,-0724,0831,12299,026.0,045.4,0.259,763.0,01.16,0.508
2015-12-06 02:13:00,1723E-3,5C000400,-0724,0830,12000,026.0,045.4,0.259,763.0,01.16,0.508
2015-12-06 02:14:00,1734E-3,5C000400,-0724,0830,12185,026.1,045.4,0.260,762.9,01.16,0.508
2015-12-06 02:15:00,1837E-3,5C000400,-0724,0832,12200,026.0,045.4,0.260,762.9,01.16,0.508
2015-12-06 02:16:00,1851E-3,5C000400,-0724,0832,12211,026.0,045.4,0.260,762.9,01.16,0.508
2015-12-06 02:17:00,1808E-3,5C000400,-0724,0831,12209,026.1,045.4,0.259,762.9,01.16,0.508
2015-12-06 02:18:00,1738E-3,5C000400,-0724,0832,12088,026.0,045.3,0.259,762.9,01.16,0.508
2015-12-06 02:19:00,1758E-3,5C000400,-0724,0831,12245,026.1,045.4,0.259,763.0,01.16,0.508
2015-12-06 02:20:00,1751E-3,5C000400,-0724,0831,12254,026.0,045.4,0.259,763.0,01.16,0.508
2015-12-06 02:21:00,1686E-3,5C000400,-0724,0831,12206,026.0,045.4,0.259,763.0,01.16,0.508
2015-12-06 02:22:00,1730E-3,5C000400,-0724,0831,12143,026.0,045.4,0.259,762.9,01.16,0.508
2015-12-06 02:23:00,1700E-3,5C000400,-0724,0830,12109,026.0,045.4,0.259,763.0,01.16,0.508
2015-12-06 02:24:00,1872E-3,5C000400,-0724,0831,12121,026.0,045.4,0.259,763.0,01.16,0.508
2015-12-06 02:25:00,1872E-3,5C000400,-0724,0832,12058,026.0,045.4,0.259,763.0,01.16,0.508
2015-12-06 02:26:00,1763E-3,5C000400,-0724,0831,12080,026.0,045.4,0.259,763.0,01.16,0.508
2015-12-06 02:27:00,1667E-3,5C000400,-0724,0831,12232,026.0,045.3,0.259,763.0,01.16,0.508
2015-12-06 02:28:00,1637E-3,5C000400,-0724,0832,12123,026.0,045.3,0.259,762.9,01.16,0.508
2015-12-06 02:29:00,1700E-3,5C000400,-0724,0831,12203,026.0,045.4,0.259,763.0,01.16,0.508
2015-12-06 02:30:00,1774E-3,5C000400,-0724,0831,12254,026.0,045.4,0.259,762.9,01.16,0.508
2015-12-06 02:31:00,1659E-3,5C000400,-0724,0831,12102,026.0,045.4,0.259,762.9,01.16,0.508
2015-12-06 02:32:00,1867E-3,5C000400,-0724,0830,12390,026.0,045.4,0.259,762.9,01.16,0.508
2015-12-06 02:33:00,1884E-3,5C000400,-0724,0832,12237,026.0,045.4,0.259,762.9,01.16,0.508
2015-12-06 02:34:00,1683E-3,5C000400,-0724,0830,12177,026.0,045.4,0.259,762.8,01.16,0.508
2015-12-06 02:35:00,1691E-3,5C000400,-0724,0830,12335,026.0,045.4,0.259,762.9,01.16,0.508
2015-12-06 02:36:00,1875E-3,5C000400,-0724,0831,12239,026.0,045.4,0.259,762.9,01.16,0.508
2015-12-06 02:37:00,1748E-3,5C000400,-0724,0831,12214,026.0,045.4,0.259,762.9,01.16,0.508
2015-12-06 02:38:00,1743E-3,5C000400,-0724,0831,12141,026.0,045.4,0.259,762.9,01.16,0.508
2015-12-06 02:39:00,1573E-3,5C000400,-0724,0831,12058,026.0,045.4,0.259,762.8,01.16,0.508
2015-12-06 02:40:00,1856E-3,5C000400,-0724,0831,12266,026.0,045.4,0.260,762.9,01.16,0.508
2015-12-06 02:41:00,1698E-3,5C000400,-0724,0831,12175,026.0,045.4,0.260,762.9,01.16,0.508
2015-12-06 02:42:00,1678E-3,5C000400,-0724,0831,12282,026.0,045.4,0.259,763.0,01.16,0.508
2015-12-06 02:43:00,1699E-3,5C000400,-0724,0830,12120,026.0,045.4,0.260,762.9,01.16,0.508
2015-12-06 02:44:00,1785E-3,5C000400,-0724,0831,12160,025.9,045.4,0.260,763.0,01.16,0.508
2015-12-06 02:45:00,1889E-3,5C000400,-0724,0832,12080,026.0,045.4,0.260,762.9,01.16,0.508
2015-12-06 02:46:00,1869E-3,5C000400,-0724,0831,12085,026.0,045.4,0.260,763.0,01.16,0.508
2015-12-06 02:47:00,1703E-3,5C000400,-0724,0831,12279,026.0,045.4,0.260,762.9,01.16,0.508
2015-12-06 02:48:00,1819E-3,5C000400,-0724,0832,12123,025.9,045.3,0.260,763.0,01.16,0.508
2015-12-06 02:49:00,1746E-3,5C000400,-0724,0831,12206,025.9,045.3,0.260,763.0,01.16,0.508
2015-12-06 02:50:00,1737E-3,5C000400,-0724,0831,12227,026.0,045.4,0.260,762.9,01.16,0.508
2015-12-06 02:51:00,1851E-3,5C000400,-0724,0831,12263,026.0,045.4,0.260,763.0,01.16,0.508
2015-12-06 02:52:00,1862E-3,5C000400,-0724,0831,11992,025.9,045.4,0.260,763.0,01.16,0.508
2015-12-06 02:53:00,1718E-3,5C000400,-0724,0831,12231,025.9,045.4,0.260,763.0,01.16,0.508
2015-12-06 02:54:00,1897E-3,5C000400,-0724,0831,12198,025.9,045.4,0.260,763.0,01.16,0.508
2015-12-06 02:55:00,1792E-3,5C000400,-0724,0831,12249,025.9,045.4,0.260,763.1,01.16,0.508
2015-12-06 02:56:00,1659E-3,5C000400,-0724,0831,12194,025.9,045.4,0.260,763.1,01.16,0.508
2015-12-06 02:57:00,1733E-3,5C000400,-0724,0831,12370,025.9,045.4,0.259,763.0,01.16,0.508
2015-12-06 02:58:00,1693E-3,5C000400,-0724,0830,12141,026.0,045.3,0.259,763.0,01.16,0.508
2015-12-06 02:59:00,1767E-3,5C000400,-0724,0831,12079,025.9,045.4,0.259,763.0,01.16,0.508
2015-12-06 03:00:00,1684E-3,5C000400,-0724,0830,12204,025.9,045.4,0.259,763.0,01.16,0.508
2015-12-06 03:01:00,1823E-3,5C000400,-0724,0831,12253,025.9,045.4,0.259,763.0,01.16,0.508
2015-12-06 03:02:00,1732E-3,5C000400,-0724,0830,12118,025.9,045.4,0.259,763.0,01.16,0.508
2015-12-06 03:03:00,1799E-3,5C000400,-0724,0831,12071,025.9,045.4,0.259,762.9,01.16,0.508
2015-12-06 03:04:00,1808E-3,5C000400,-0724,0831,12244,025.9,045.4,0.259,762.9,01.16,0.508
2015-12-06 03:05:00,1810E-3,5C000400,-0724,0832,12231,025.9,045.4,0.259,762.9,01.16,0.508
2015-12-06 03:06:00,1871E-3,5C000400,-0724,0831,12163,025.9,045.3,0.259,763.0,01.16,0.508
2015-12-06 03:07:00,1833E-3,5C000400,-0724,0832,12127,025.9,045.4,0.259,763.0,01.16,0.508
2015-12-06 03:08:00,1851E-3,5C000400,-0724,0831,12162,025.9,045.3,0.259,763.0,01.16,0.508
2015-12-06 03:09:00,1747E-3,5C000400,-0724,0831,12143,025.9,045.3,0.259,763.0,01.16,0.508
2015-12-06 03:10:00,1749E-3,5C000400,-0724,0831,12182,025.9,045.4,0.259,763.0,01.16,0.508
2015-12-06 03:11:00,1968E-3,5C000400,-0724,0831,12203,025.9,045.4,0.259,763.0,01.16,0.508
2015-12-06 03:12:00,1874E-3,5C000400,-0724,0831,12200,025.9,045.4,0.259,763.1,01.16,0.508
2015-12-06 03:13:00,1827E-3,5C000400,-0724,0832,12153,025.8,045.4,0.259,763.0,01.16,0.508
2015-12-06 03:14:00,1814E-3,5C000400,-0724,0831,12126,025.9,045.4,0.260,762.9,01.16,0.508
2015-12-06 03:15:00,1829E-3,5C000400,-0724,0831,12127,025.8,045.4,0.260,762.9,01.16,0.508
2015-12-06 03:16:00,1845E-3,5C000400,-0724,0830,12120,025.8,045.4,0.260,763.0,01.16,0.508
2015-12-06 03:17:00,1785E-3,5C000400,-0724,0830,12103,025.9,045.4,0.260,763.1,01.16,0.508
2015-12-06 03:18:00,1733E-3,5C000400,-0724,0831,12109,025.8,045.4,0.260,763.0,01.16,0.508
2015-12-06 03:19:00,1708E-3,5C000400,-0724,0832,12209,025.8,045.4,0.260,763.0,01.16,0.508
2015-12-06 03:20:00,1788E-3,5C000400,-0724,0831,12212,025.8,045.4,0.260,763.0,01.16,0.508
2015-12-06 03:21:00,1892E-3,5C000400,-0724,0830,12126,025.8,045.4,0.260,762.9,01.16,0.508
2015-12-06 03:22:00,1789E-3,5C000400,-0724,0831,12189,025.8,045.4,0.260,762.9,01.16,0.508
2015-12-06 03:23:00,1796E-3,5C000400,-0724,0831,12230,025.8,045.3,0.260,762.9,01.16,0.508
2015-12-06 03:24:00,1794E-3,5C000400,-0724,0831,12164,025.8,045.3,0.260,762.9,01.16,0.508
2015-12-06 03:25:00,1740E-3,5C000400,-0724,0831,12160,025.8,045.3,0.260,762.9,01.16,0.508
2015-12-06 03:26:00,1780E-3,5C000400,-0724,0832,12192,025.8,045.4,0.260,762.9,01.16,0.508
2015-12-06 03:27:00,1722E-3,5C000400,-0724,0831,12185,025.8,045.3,0.260,763.0,01.16,0.508
2015-12-06 03:28:00,1787E-3,5C000400,-0724,0831,12163,025.8,045.4,0.260,763.0,01.16,0.508
2015-12-06 03:29:00,1979E-3,5C000400,-0724,0831,12203,025.8,045.4,0.260,763.0,01.16,0.508
2015-12-06 03:30:00,1813E-3,5C000400,-0724,0831,12220,025.8,045.4,0.260,763.0,01.16,0.508
2015-12-06 03:31:00,1922E-3,5C000400,-0724,0831,12038,025.8,045.4,0.260,763.1,01.16,0.508
2015-12-06 03:32:00,1826E-3,5C000400,-0724,0832,12143,025.8,045.4,0.260,763.1,01.16,0.508
2015-12-06 03:33:00,1859E-3,5C000400,-0724,0831,12184,025.8,045.4,0.260,763.1,01.16,0.508
2015-12-06 03:34:00,1852E-3,5C000400,-0724,0832,12243,025.8,045.4,0.259,763.1,01.16,0.508
2015-12-06 03:35:00,1751E-3,5C000400,-0724,0831,12213,025.8,045.3,0.259,763.0,01.16,0.508
2015-12-06 03:36:00,1812E-3,5C000400,-0724,0831,12223,025.8,045.4,0.259,763.1,01.16,0.508
2015-12-06 03:37:00,1896E-3,5C000400,-0724,0832,12139,025.8,045.4,0.259,763.1,01.16,0.508
2015-12-06 03:38:00,1726E-3,5C000400,-0724,0831,12216,025.8,045.4,0.259,763.1,01.16,0.508
2015-12-06 03:39:00,1758E-3,5C000400,-0724,0831,12365,025.8,045.4,0.259,763.1,01.16,0.508
2015-12-06 03:40:00,1822E-3,5C000400,-0724,0831,12230,025.8,045.3,0.260,763.0,01.16,0.508
2015-12-06 03:41:00,1714E-3,5C000400,-0724,0832,12143,025.8,045.4,0.260,763.1,01.16,0.508
2015-12-06 03:42:00,1856E-3,5C000400,-0724,0831,12213,025.8,045.4,0.260,763.1,01.16,0.508
2015-12-06 03:43:00,1849E-3,5C000400,-0724,0832,12190,025.8,045.4,0.260,763.0,01.16,0.508
2015-12-06 03:44:00,1687E-3,5C000400,-0724,0831,12289,025.7,045.4,0.260,763.1,01.16,0.508
2015-12-06 03:45:00,1715E-3,5C000400,-0724,0831,12104,025.8,045.4,0.260,763.0,01.16,0.508
2015-12-06 03:46:00,1794E-3,5C000400,-0724,0831,11999,025.7,045.4,0.260,763.0,01.16,0.508
2015-12-06 03:47:00,1737E-3,5C000400,-0724,0832,12029,025.7,045.4,0.260,763.0,01.16,0.508
2015-12-06 03:48:00,1757E-3,5C000400,-0724,0830,12186,025.7,045.4,0.260,763.1,01.16,0.508
2015-12-06 03:49:00,1769E-3,5C000400,-0724,0830,12276,025.7,045.4,0.260,763.1,01.16,0.508
2015-12-06 03:50:00,1812E-3,5C000400,-0724,0830,12242,025.7,045.4,0.260,763.1,01.16,0.508
2015-12-06 03:51:00,1729E-3,5C000400,-0724,0831,12124,025.7,045.4,0.260,763.1,01.16,0.508
2015-12-06 03:52:00,1794E-3,5C000400,-0724,0831,12228,025.7,045.3,0.260,763.1,01.16,0.508
2015-12-06 03:53:00,1793E-3,5C000400,-0724,0832,12081,025.7,045.3,0.260,763.1,01.16,0.508
2015-12-06 03:54:00,1704E-3,5C000400,-0724,0831,12158,025.7,045.4,0.260,763.0,01.16,0.508
2015-12-06 03:55:00,1742E-3,5C000400,-0724,0831,12171,025.7,045.3,0.260,763.0,01.16,0.508
2015-12-06 03:56:00,1840E-3,5C000400,-0724,0831,12057,025.7,045.4,0.260,763.0,01.16,0.508
2015-12-06 03:57:00,1849E-3,5C000400,-0724,0831,12115,025.7,045.4,0.260,762.9,01.16,0.508
2015-12-06 03:58:00,1814E-3,5C000400,-0724,0830,12309,025.7,045.4,0.260,762.9,01.16,0.508
2015-12-06 03:59:00,1722E-3,5C000400,-0724,0831,12130,025.7,045.4,0.260,762.9,01.16,0.508
2015-12-06 04:00:00,1863E-3,5C000400,-0724,0831,12254,025.7,045.4,0.260,762.9,01.16,0.508
2015-12-06 04:01:00,1735E-3,5C000400,-0724,0832,12208,025.7,045.4,0.260,762.8,01.16,0.508
2015-12-06 04:02:00,1778E-3,5C000400,-0724,0831,12209,025.7,045.4,0.260,762.8,01.16,0.508
2015-12-06 04:03:00,1609E-3,5C000400,-0724,0831,12045,025.7,045.4,0.260,762.8,01.16,0.508
2015-12-06 04:04:00,1788E-3,5C000400,-0724,0832,12098,025.7,045.4,0.260,762.7,01.16,0.508
2015-12-06 04:05:00,1673E-3,5C000400,-0724,0831,12265,025.7,045.4,0.260,762.7,01.16,0.508
2015-12-06 04:06:00,1691E-3,5C000400,-0724,0831,12211,025.7,045.3,0.259,762.7,01.16,0.508
2015-12-06 04:07:00,1778E-3,5C000400,-0724,0831,12078,025.7,045.4,0.259,762.7,01.16,0.508
2015-12-06 04:08:00,1656E-3,5C000400,-0724,0831,12225,025.7,045.4,0.259,762.7,01.16,0.508
2015-12-06 04:09:00,1754E-3,5C000400,-0724,0831,12160,025.7,045.3,0.259,762.6,01.16,0.508
2015-12-06 04:10:00,1858E-3,5C000400,-0724,0831,12212,025.7,045.4,0.259,762.7,01.16,0.508
2015-12-06 04:11:00,1743E-3,5C000400,-0724,0830,12209,025.7,045.4,0.259,762.6,01.16,0.508
2015-12-06 04:12:00,1750E-3,5C000400,-0724,0831,12253,025.7,045.4,0.259,762.7,01.16,0.508
2015-12-06 04:13:00,1707E-3,5C000400,-0724,0832,12234,025.7,045.3,0.259,762.6,01.16,0.508
2015-12-06 04:14:00,1770E-3,5C000400,-0724,0832,12181,025.7,045.4,0.260,762.7,01.16,0.508
2015-12-06 04:15:00,1786E-3,5C000400,-0724,0832,12252,025.7,045.4,0.260,762.7,01.16,0.508
2015-12-06 04:16:00,1884E-3,5C000400,-0724,0831,12228,025.7,045.4,0.260,762.7,01.16,0.508
2015-12-06 04:17:00,1748E-3,5C000400,-0724,0832,12115,025.7,045.4,0.260,762.6,01.16,0.508
2015-12-06 04:18:00,1775E-3,5C000400,-0724,0830,12307,025.7,045.4,0.260,762.7,01.16,0.508
2015-12-06 04:19:00,1710E-3,5C000400,-0724,0831,12208,025.7,045.4,0.260,762.7,01.16,0.508
2015-12-06 04:20:00,1824E-3,5C000400,-0724,0832,12182,025.7,045.4,0.260,762.7,01.16,0.508